Regional Weather Roundup
Issued by NWS

Home | Current Version | Previous Version | Text Only | Print | Product List | Glossary On
Versions: 1 2 3 4 5 6 7 8 9 10 11 12 13 14 15 16 17 18 19 20 21 22 23 24 25 26 27 28
000
ASCA42 TJSJ 240210
RWRPR
PUERTO RICO/U.S. VIRGIN ISLANDS HOURLY WEATHER ROUNDUP
NATIONAL WEATHER SERVICE SAN JUAN PR
1000 PM AST SUN APR 23 2017

PRZ001>002-007>008-010-240300-
PUERTO RICO

CITY           SKY/WX    TMP DP  RH WIND       PRES   REMARKS
SAN JUAN LMM   PTCLDY    81  75  83 E8        29.98R
PONCE          MOCLDY    79  73  83 E8        30.00
AGUADILLA      PTCLDY    75  72  88 E7        29.98R
CEIBA          MOCLDY   N/A N/A N/A E14       30.01R
$$

VIZ001>002-240300-
U.S. VIRGIN ISLANDS

CITY           SKY/WX    TMP DP  RH WIND       PRES   REMARKS
CHARLOTTE AMA  PTCLDY    81  73  78 E14       29.98R
CHRISTIANSTED  HVY RAIN  75 N/A N/A SE14G23   30.00R
$$

HOURLY WEATHER ROUNDUP FOR THE NEWS MEDIA

CITY           SKY/WX    TMP DP  RH WIND       PRES   REMARKS
ORLANDO        CLEAR     74  66  76 SE9       29.81R
NEW YORK       CLOUDY    50  47  89 S9        30.15R
NEWARK         CLOUDY    54  43  66 SE7       30.13R
CHICAGO        MOCLDY    52  38  58 NE10      30.05R
HARTFORD       PTCLDY    45  40  82 SW7       30.14R
BOSTON         CLOUDY    50  40  68 S12       30.10R
DALLAS         PTCLDY    66  40  38 NE5       30.00S
PHILADELPHIA   MOCLDY    53  45  74 S5        30.14R
LOS ANGELES    PTCLDY    63  54  72 W16G23    29.83S
WASHINGTON DC  CLOUDY    54  43  66 SE6       30.10R



USA.gov is the U.S. government's official web portal to all federal, state and local government web resources and services.